sat.trackr.live / text

‹ back to catalog

STARLINK-5155

NORAD 54170 · 2022-141P

PAYLOAD ACTIVE UNKNOWN

§ Identity

Operator
Country
US
Launch date
2022-10-28
Launch site
AFWTR
Launch vehicle
Mass (kg)
RCS (m²)

Purposes: comms

External: N2YO · Heavens-Above · Gunter

§ Orbital elements

Epoch: 2026-05-24T23:26:35.861280Z

Period
95.44 min
Inclination
53.2140°
Eccentricity
0.0001255
Mean motion
15.08845327 rev/d
Perigee alt
538.9 km
Apogee alt
540.6 km
Semi-major
6,917.9 km
B*
1.2702e-4
RAAN
21.7064°
Arg perigee
87.2031°
Mean anomaly
272.9104°
Rev number
19,737

§ Raw data

STARLINK-51551 54170U 22141P   26144.97680395  .00001735  00000+0  12702-3 0  99912 54170  53.2140  21.7064 0001255  87.2031 272.9104 15.08845327197373

JSON: /api/v1/satellites/54170 · /tle

For live sub-satellite position, see the globe view (requires WebGL).

§ Visibility from observer

Set your observer location to see the next 7 days of passes ≥ 10°. The values pass through the URL so the page stays shareable.

No JS? Fill the form by hand. The geolocation button needs JavaScript.